Volver al catálogo

STARLINK-5664

ActivoComunicacionesVLEO
NORAD 55360·PAYLOAD·🇺🇸 United States

Lanzado Jan 26, 2023 desde Cape Canaveral Space Force Station

Loading…

Próximos Pases (próximas 24 horas)

TLE

ActualizadoSource: CelesTrak SupGP

Época: Sep 15, 2026, 01:59 UTC

1 55360C 23013AF  26258.08312500  .00022867  00000+0  82826-3 0  2581
2 55360  43.0022 331.8181 0001413 266.6901 315.9312 15.27566523    13

Sigue STARLINK-5664 en tiempo real con AllMySat

Download on the App Store